QPF
0.00 0.00 0.00 0.00 0.00 0.00 0.00 0.00 0.00 0.00 0.00 0.00 0.00 0.00 0.00 0.00 0.00 0.00 0.00 0.00 0.00 0.00 0.00 0.00 0.00 0.00 0.00 0.00 0.00 0.00 0.00 0.00 0.00 0.01 0.01 0.00 0.00 0.00 0.00 0.00 0.00 0.00 0.02
0.00 0.00 0.00 0.00 0.00 0.00 0.00 0.00 0.00 0.00 0.00 0.00 0.00 0.00 0.00 0.00 0.00 0.00 0.00 0.00 0.00 0.00 0.00 0.00 0.00 0.00 0.00 0.00 0.00 0.00 0.00 0.00 0.00 0.00 0.01 0.01 0.00 0.00 0.00 0.00 0.00 0.00 0.01
0.00 0.00 0.00 0.00 0.00 0.00 0.00 0.00 0.00 0.00 0.00 0.00 0.00 0.00 0.00 0.00 0.00 0.00 0.00 0.00 0.00 0.00 0.00 0.00 0.00 0.00 0.00 0.00 0.00 0.00 0.00 0.00 0.00 0.00 0.00 0.00 0.00 0.00 0.00 0.00 0.00 0.00 0.00
0.00 0.00 0.00 0.00 0.00 0.00 0.00 0.00 0.00 0.00 0.00 0.00 0.00 0.00 0.00 0.00 0.00 0.00 0.00 0.00 0.00 0.00 0.00 0.00 0.00 0.00 0.00 0.00 0.00 0.00 0.00 0.00 0.01 0.01 0.00 0.00 0.00 0.00 0.00 0.00 0.00 0.00 0.00
0.00 0.00 0.00 0.00 0.00 0.00 0.00 0.00 0.00 0.00 0.00 0.00 0.00 0.00 0.00 0.00 0.00 0.00 0.00 0.00 0.00 0.00 0.00 0.00 0.00 0.00 0.00 0.00 0.00 0.00 0.00 0.01 0.10 0.10 0.06 0.05 0.00 0.00 0.00 0.00 0.00 0.00 0.00
0.00 0.00 0.00 0.00 0.00 0.00 0.00 0.00 0.00 0.00 0.00 0.00 0.00 0.00 0.00 0.00 0.00 0.00 0.00 0.00 0.00 0.00 0.00 0.00 0.00 0.00 0.00 0.00 0.00 0.00 0.00 0.00 0.03 0.05 0.06 0.12 0.00 0.00 0.00 0.00 0.00 0.00 0.00
0.00 0.00 0.00 0.00 0.00 0.00 0.00 0.00 0.00 0.00 0.00 0.00 0.00 0.00 0.00 0.00 0.00 0.00 0.00 0.00 0.00 0.00 0.00 0.00 0.00 0.00 0.00 0.00 0.00 0.00 0.00 0.00 0.00 0.01 0.02 0.13 0.01 0.00 0.00 0.00 0.00 0.00 0.00
0.00 0.00 0.00 0.00 0.00 0.00 0.00 0.00 0.00 0.00 0.00 0.00 0.00 0.00 0.00 0.00 0.00 0.00 0.00 0.00 0.00 0.00 0.00 0.00 0.00 0.00 0.00 0.00 0.00 0.00 0.00 0.00 0.00 0.00 0.01 0.09 0.02 0.03 0.04 0.00 0.00 0.00 0.00
0.00 0.00 0.00 0.00 0.00 0.00 0.00 0.00 0.00 0.00 0.00 0.00 0.00 0.00 0.00 0.00 0.00 0.00 0.00 0.00 0.00 0.00 0.00 0.00 0.00 0.00 0.00 0.00 0.00 0.00 0.00 0.00 0.00 0.00 0.00 0.00 0.01 0.05 0.07 0.01 0.00 0.00 0.00
0.00 0.00 0.00 0.00 0.00 0.00 0.00 0.00 0.00 0.00 0.00 0.00 0.00 0.00 0.00 0.00 0.00 0.00 0.00 0.00 0.00 0.00 0.00 0.00 0.00 0.00 0.00 0.00 0.00 0.00 0.00 0.00 0.00 0.00 0.00 0.04 0.01 0.00 0.07 0.11 0.01 0.01 0.01
0.00 0.00 0.00 0.00 0.00 0.00 0.00 0.00 0.00 0.00 0.00 0.00 0.00 0.00 0.00 0.00 0.00 0.00 0.00 0.00 0.00 0.00 0.00 0.00 0.00 0.00 0.00 0.00 0.00 0.00 0.04 0.00 0.01 0.01 0.00 0.02 0.01 0.00 0.00 0.04 0.09 0.08 0.09
0.00 0.00 0.00 0.00 0.00 0.00 0.00 0.00 0.00 0.00 0.00 0.00 0.00 0.00 0.00 0.00 0.00 0.00 0.00 0.00 0.00 0.00 0.01 0.00 0.00 0.00 0.00 0.00 0.00 0.00 0.03 0.06 0.01 0.04 0.02 0.04 0.04 0.04 0.02 0.05 0.11 0.10 0.11
0.00 0.00 0.00 0.00 0.00 0.00 0.00 0.00 0.00 0.00 0.00 0.00 0.00 0.00 0.00 0.00 0.00 0.00 0.00 0.00 0.00 0.03 0.02 0.00 0.00 0.00 0.00 0.00 0.01 0.06 0.17 0.18 0.05 0.06 0.03 0.01 0.03 0.00 0.01 0.03 0.08 0.11 0.18
0.00 0.00 0.00 0.00 0.00 0.00 0.00 0.00 0.00 0.00 0.00 0.00 0.00 0.00 0.00 0.00 0.00 0.00 0.00 0.00 0.00 0.00 0.00 0.00 0.00 0.00 0.00 0.00 0.03 0.18 0.18 0.13 0.11 0.09 0.06 0.02 0.00 0.01 0.10 0.22 0.29 0.78 0.94
0.00 0.00 0.00 0.00 0.00 0.00 0.00 0.00 0.00 0.00 0.00 0.00 0.00 0.00 0.00 0.00 0.00 0.00 0.00 0.00 0.00 0.00 0.00 0.00 0.00 0.00 0.00 0.00 0.01 0.03 0.06 0.04 0.03 0.04 0.04 0.02 0.01 0.00 0.03 0.11 0.29 1.57 1.32
0.00 0.00 0.00 0.00 0.00 0.00 0.00 0.00 0.00 0.00 0.00 0.00 0.00 0.00 0.00 0.00 0.00 0.00 0.00 0.00 0.00 0.00 0.00 0.00 0.00 0.00 0.00 0.00 0.00 0.00 0.00 0.00 0.00 0.00 0.01 0.01 0.00 0.00 0.01 0.05 0.12 0.07 0.16
0.00 0.00 0.00 0.00 0.00 0.00 0.00 0.00 0.00 0.00 0.00 0.00 0.00 0.00 0.00 0.04 0.03 0.00 0.00 0.00 0.00 0.00 0.00 0.00 0.00 0.00 0.00 0.00 0.00 0.00 0.00 0.00 0.00 0.00 0.00 0.00 0.01 0.00 0.00 0.01 0.02 0.02 0.02
0.00 0.00 0.00 0.00 0.00 0.00 0.00 0.00 0.00 0.00 0.00 0.00 0.00 0.00 0.00 0.01 0.00 0.00 0.00 0.00 0.00 0.00 0.00 0.00 0.00 0.00 0.00 0.00 0.00 0.00 0.00 0.00 0.00 0.00 0.00 0.00 0.00 0.00 0.00 0.00 0.00 0.01 0.01
0.00 0.00 0.00 0.00 0.00 0.00 0.00 0.00 0.00 0.00 0.00 0.00 0.00 0.00 0.00 0.00 0.00 0.00 0.00 0.00 0.00 0.00 0.00 0.00 0.00 0.00 0.00 0.00 0.00 0.00 0.00 0.00 0.00 0.00 0.00 0.00 0.00 0.00 0.00 0.01 0.00 0.00 0.00
0.00 0.00 0.00 0.00 0.00 0.00 0.00 0.00 0.00 0.00 0.00 0.00 0.01 0.01 0.00 0.00 0.00 0.00 0.00 0.00 0.00 0.00 0.00 0.00 0.00 0.00 0.00 0.00 0.00 0.00 0.00 0.00 0.00 0.00 0.00 0.00 0.00 0.00 0.00 0.00 0.00 0.00 0.00
0.00 0.00 0.00 0.00 0.00 0.00 0.00 0.00 0.00 0.00 0.00 0.00 0.00 0.00 0.00 0.00 0.00 0.00 0.00 0.00 0.00 0.00 0.00 0.00 0.00 0.00 0.00 0.00 0.00 0.00 0.00 0.00 0.00 0.00 0.00 0.00 0.00 0.00 0.00 0.00 0.00 0.00 0.00
0.00 0.00 0.00 0.00 0.00 0.00 0.00 0.00 0.00 0.00 0.00 0.00 0.00 0.00 0.00 0.00 0.00 0.00 0.00 0.00 0.00 0.00 0.00 0.00 0.00 0.00 0.00 0.00 0.00 0.00 0.00 0.00 0.00 0.00 0.00 0.00 0.00 0.00 0.00 0.00 0.00 0.00 0.00
0.00 0.00 0.00 0.00 0.00 0.00 0.00 0.00 0.00 0.00 0.00 0.00 0.00 0.00 0.00 0.00 0.00 0.00 0.00 0.00 0.00 0.00 0.00 0.00 0.00 0.00 0.00 0.00 0.00 0.00 0.00 0.00 0.00 0.00 0.00 0.00 0.00 0.00 0.00 0.00 0.00 0.00 0.01
0.00 0.00 0.00 0.00 0.00 0.00 0.00 0.00 0.00 0.00 0.00 0.00 0.00 0.00 0.00 0.00 0.00 0.00 0.00 0.00 0.00 0.00 0.00 0.00 0.00 0.00 0.00 0.00 0.00 0.00 0.00 0.00 0.00 0.00 0.00 0.00 0.00 0.00 0.00 0.00 0.00 0.00 0.00
0.00 0.00 0.00 0.00 0.00 0.01 0.01 0.01 0.00 0.00 0.00 0.00 0.00 0.00 0.00 0.00 0.00 0.00 0.00 0.00 0.00 0.00 0.00 0.00 0.00 0.00 0.00 0.00 0.00 0.00 0.00 0.00 0.00 0.00 0.00 0.00 0.00 0.00 0.00 0.00 0.00 0.00 0.00
0.00 0.00 0.00 0.01 0.01 0.01 0.00 0.00 0.00 0.00 0.00 0.00 0.00 0.00 0.00 0.00 0.00 0.00 0.00 0.00 0.00 0.00 0.00 0.00 0.00 0.00 0.00 0.00 0.00 0.00 0.00 0.00 0.00 0.00 0.00 0.00 0.00 0.00 0.00 0.00 0.00 0.00 0.00
MSLP
1011.92 1011.93 1012.31 1012.75 1013.09 1013.25 1013.42 1013.62 1013.82 1014.02 1014.32 1014.68 1015.00 1015.32 1015.58 1015.73 1015.85 1016.03 1016.11 1016.17 1016.07 1016.06 1016.07 1016.17 1016.33 1016.45 1016.52 1016.76 1017.03 1017.11 1017.07 1017.15 1017.23 1017.22 1017.10 1017.03 1017.05 1017.15 1017.27 1017.36 1017.39 1017.36 1017.31
1010.93 1011.88 1012.31 1012.71 1013.11 1013.42 1013.72 1014.01 1014.22 1014.32 1014.54 1014.93 1015.31 1015.56 1015.77 1015.94 1016.08 1016.19 1016.24 1016.31 1016.21 1016.30 1016.47 1016.58 1016.77 1016.94 1016.98 1017.06 1017.25 1017.41 1017.40 1017.41 1017.52 1017.46 1017.32 1017.16 1017.12 1017.21 1017.40 1017.55 1017.67 1017.74 1017.68
1011.13 1011.87 1012.41 1012.71 1013.07 1013.43 1013.85 1014.15 1014.43 1014.60 1014.85 1015.16 1015.45 1015.72 1015.83 1015.97 1016.19 1016.32 1016.48 1016.53 1016.51 1016.53 1016.61 1016.78 1016.96 1017.23 1017.43 1017.45 1017.45 1017.64 1017.74 1017.83 1017.86 1017.97 1017.90 1017.80 1017.67 1017.56 1017.57 1017.65 1017.83 1017.87 1018.01
1011.21 1011.90 1012.43 1012.74 1013.03 1013.45 1013.87 1014.25 1014.51 1014.81 1015.15 1015.33 1015.53 1015.69 1015.90 1016.05 1016.32 1016.47 1016.60 1016.71 1016.81 1016.75 1016.90 1017.08 1017.20 1017.38 1017.59 1017.71 1017.70 1017.66 1017.80 1018.03 1018.07 1018.11 1018.28 1018.20 1018.02 1017.88 1017.82 1017.85 1017.82 1017.98 1018.09
1011.64 1011.93 1012.34 1012.74 1013.04 1013.42 1013.86 1014.25 1014.64 1014.92 1015.14 1015.37 1015.52 1015.68 1015.93 1016.21 1016.46 1016.66 1016.87 1016.87 1016.94 1016.93 1016.97 1017.14 1017.46 1017.72 1017.98 1018.02 1017.99 1017.97 1017.84 1017.93 1018.10 1018.09 1018.28 1018.30 1018.19 1018.17 1018.08 1017.97 1017.99 1018.13 1018.29
1012.04 1012.20 1012.47 1012.83 1013.17 1013.53 1013.83 1014.17 1014.67 1015.12 1015.34 1015.50 1015.69 1015.84 1016.16 1016.46 1016.65 1016.89 1017.10 1017.11 1017.09 1017.16 1017.23 1017.45 1017.63 1017.68 1017.99 1018.14 1018.09 1018.12 1018.10 1018.11 1018.03 1018.15 1018.00 1018.14 1018.20 1018.16 1018.26 1018.25 1018.06 1018.13 1018.36
1012.20 1012.46 1012.74 1013.10 1013.33 1013.74 1014.03 1014.38 1014.72 1015.20 1015.40 1015.60 1015.83 1015.99 1016.33 1016.66 1016.98 1017.22 1017.33 1017.44 1017.51 1017.51 1017.58 1017.64 1017.65 1017.81 1018.01 1018.21 1018.23 1018.24 1018.35 1018.18 1018.14 1018.13 1017.92 1017.90 1017.96 1017.93 1018.13 1018.33 1018.16 1018.13 1018.36
1012.12 1012.53 1012.98 1013.39 1013.66 1013.83 1014.24 1014.70 1014.93 1015.11 1015.49 1015.71 1015.84 1016.00 1016.35 1016.67 1017.05 1017.24 1017.45 1017.55 1017.68 1017.78 1017.83 1017.84 1017.83 1017.80 1017.69 1018.05 1018.44 1018.33 1018.24 1018.28 1018.08 1018.11 1018.00 1017.99 1017.75 1018.04 1018.15 1018.21 1018.30 1018.06 1018.36
1012.42 1012.68 1013.11 1013.46 1013.71 1013.96 1014.34 1014.58 1014.94 1015.17 1015.54 1015.83 1016.01 1016.24 1016.62 1016.89 1017.07 1017.29 1017.49 1017.63 1017.79 1017.97 1018.11 1018.20 1018.07 1017.97 1017.93 1017.15 1017.82 1017.98 1018.53 1018.08 1018.10 1018.07 1018.08 1018.03 1017.90 1017.80 1017.86 1018.06 1018.11 1018.24 1018.17
1012.89 1012.98 1013.16 1013.45 1013.73 1014.09 1014.44 1014.73 1015.02 1015.37 1015.67 1015.98 1016.22 1016.41 1016.69 1017.10 1017.43 1017.58 1017.58 1017.77 1017.97 1018.13 1018.03 1017.98 1018.19 1018.03 1018.12 1018.33 1017.29 1016.81 1018.53 1017.98 1017.97 1018.01 1018.11 1017.89 1017.72 1017.70 1017.68 1017.75 1018.00 1018.24 1018.33
1013.34 1013.26 1013.25 1013.47 1013.71 1014.11 1014.40 1014.74 1015.11 1015.39 1015.73 1016.15 1016.38 1016.57 1016.93 1017.27 1017.53 1017.66 1017.79 1017.83 1017.95 1018.10 1018.20 1018.04 1018.06 1018.38 1018.39 1018.44 1018.24 1016.91 1017.99 1018.06 1017.89 1018.05 1018.14 1017.70 1017.65 1017.48 1017.56 1017.70 1017.73 1017.93 1018.62
1013.20 1013.27 1013.45 1013.63 1013.93 1014.18 1014.40 1014.70 1015.16 1015.50 1015.85 1016.23 1016.46 1016.78 1017.11 1017.41 1017.57 1017.64 1017.82 1017.92 1018.08 1018.20 1018.26 1018.49 1018.49 1018.36 1018.35 1018.29 1018.18 1017.54 1017.73 1017.98 1018.20 1018.15 1018.14 1017.74 1017.51 1017.31 1017.47 1017.80 1017.99 1017.69 1018.16
1012.61 1013.08 1013.42 1013.63 1013.85 1014.19 1014.46 1014.87 1015.28 1015.55 1015.88 1016.22 1016.51 1016.88 1017.23 1017.54 1017.60 1017.71 1017.89 1018.11 1018.38 1018.49 1018.57 1018.70 1018.86 1018.90 1018.70 1018.50 1018.23 1018.13 1017.88 1018.17 1018.78 1018.13 1018.29 1018.04 1017.62 1017.51 1017.39 1017.74 1017.65 1017.80 1017.74
1012.46 1012.81 1013.40 1013.61 1013.94 1014.20 1014.58 1014.87 1015.13 1015.47 1015.82 1016.24 1016.52 1016.82 1017.24 1017.53 1017.65 1017.77 1018.01 1018.46 1018.69 1018.93 1019.08 1019.24 1019.27 1019.24 1018.87 1018.58 1018.34 1018.27 1018.21 1018.94 1018.41 1018.39 1018.28 1017.97 1017.51 1017.61 1017.69 1017.69 1017.68 1018.15 1018.26
1012.20 1012.56 1013.06 1013.39 1013.78 1014.03 1014.45 1014.81 1015.05 1015.41 1015.69 1016.09 1016.47 1016.70 1017.09 1017.42 1017.74 1018.06 1018.38 1018.77 1018.96 1019.09 1019.26 1019.28 1019.09 1019.06 1019.12 1019.36 1019.32 1019.01 1019.10 1019.10 1019.14 1019.38 1019.03 1018.31 1017.64 1017.77 1017.77 1017.75 1017.99 1018.42 1017.97
1011.55 1012.03 1012.62 1013.04 1013.44 1013.79 1014.32 1014.60 1014.91 1015.22 1015.56 1016.05 1016.38 1016.56 1016.91 1017.42 1017.94 1018.31 1018.71 1018.91 1019.09 1019.25 1019.39 1019.53 1019.48 1019.50 1019.73 1019.89 1019.93 1019.81 1019.78 1019.80 1019.77 1019.81 1019.25 1018.98 1019.06 1018.64 1018.11 1018.08 1018.49 1018.84 1019.29
1010.69 1011.44 1012.16 1012.76 1013.07 1013.65 1014.11 1014.41 1014.80 1015.10 1015.49 1016.01 1016.42 1016.72 1017.00 1017.54 1018.10 1018.48 1018.86 1019.21 1019.26 1019.22 1019.34 1019.45 1019.65 1019.81 1020.16 1020.51 1020.61 1020.54 1020.43 1020.33 1020.35 1020.34 1019.95 1019.88 1019.85 1019.61 1019.55 1019.37 1019.10 1018.95 1019.07
1010.61 1010.87 1011.73 1012.44 1013.00 1013.59 1014.09 1014.38 1014.89 1015.28 1015.67 1016.16 1016.56 1016.87 1017.21 1017.72 1018.21 1018.64 1019.02 1019.19 1019.21 1019.28 1019.58 1019.71 1019.90 1020.35 1020.76 1020.91 1021.14 1021.39 1021.16 1021.06 1021.03 1021.08 1020.82 1020.87 1020.59 1020.67 1020.64 1020.42 1020.35 1020.45 1020.06
1010.06 1010.72 1011.40 1012.08 1012.91 1013.59 1014.29 1014.78 1015.25 1015.63 1015.97 1016.42 1016.71 1017.11 1017.51 1017.92 1018.33 1018.62 1018.88 1019.21 1019.27 1019.47 1019.81 1020.06 1020.47 1020.71 1021.38 1021.79 1021.92 1021.86 1022.09 1021.95 1021.79 1021.59 1021.33 1021.17 1021.28 1021.22 1021.27 1021.42 1021.33 1021.32 1021.17
1010.27 1010.80 1011.50 1012.21 1012.99 1013.77 1014.52 1015.12 1015.62 1016.02 1016.33 1016.71 1017.11 1017.47 1017.77 1018.13 1018.32 1018.60 1019.07 1019.52 1019.59 1019.73 1020.16 1020.41 1020.93 1021.45 1021.72 1021.90 1022.19 1022.56 1022.59 1022.59 1022.38 1022.14 1021.87 1021.72 1021.68 1021.50 1021.59 1021.69 1021.65 1021.64 1021.89
1010.69 1011.10 1011.64 1012.30 1013.12 1013.71 1014.59 1015.24 1015.88 1016.30 1016.79 1017.08 1017.43 1017.82 1018.02 1018.22 1018.51 1018.92 1019.24 1019.70 1019.81 1019.96 1020.33 1020.75 1021.33 1021.71 1022.25 1022.32 1022.52 1022.78 1022.71 1022.61 1022.70 1022.74 1022.48 1022.31 1022.23 1022.17 1022.12 1022.00 1022.13 1022.10 1021.99
1010.83 1011.35 1012.05 1012.67 1013.18 1013.78 1014.40 1015.18 1015.81 1016.43 1017.07 1017.43 1017.61 1018.11 1018.34 1018.47 1018.68 1018.92 1019.21 1019.66 1019.67 1020.03 1020.53 1020.84 1020.99 1021.65 1022.00 1022.16 1022.31 1022.58 1022.93 1023.34 1023.16 1023.01 1022.91 1022.60 1022.65 1022.72 1022.71 1022.57 1022.33 1022.31 1022.44
1011.10 1011.33 1011.91 1012.64 1013.25 1013.98 1014.63 1015.37 1016.10 1016.82 1017.53 1018.00 1018.25 1018.62 1018.63 1018.66 1018.76 1018.95 1019.19 1019.44 1019.68 1019.93 1020.51 1020.74 1020.90 1021.05 1021.52 1021.95 1021.91 1022.08 1022.45 1022.75 1022.92 1022.97 1022.95 1022.92 1022.91 1022.96 1022.91 1022.77 1022.75 1022.75 1023.02
1011.12 1011.60 1012.15 1012.57 1013.28 1013.93 1014.47 1015.00 1015.38 1015.99 1016.91 1017.48 1017.92 1018.24 1018.58 1018.63 1018.65 1018.85 1019.14 1019.42 1019.69 1019.90 1020.27 1020.51 1020.71 1020.96 1021.23 1021.62 1021.74 1021.61 1021.66 1022.00 1022.38 1023.00 1023.26 1023.17 1023.06 1023.14 1023.10 1023.00 1023.00 1022.97 1023.16
1010.92 1011.60 1012.15 1012.50 1013.17 1013.73 1014.20 1014.65 1015.13 1015.77 1016.47 1017.10 1017.68 1018.16 1018.38 1018.64 1018.82 1019.10 1019.24 1019.43 1019.63 1020.05 1020.10 1020.34 1020.70 1020.98 1021.17 1021.60 1021.85 1022.01 1022.02 1021.98 1022.37 1022.60 1022.82 1023.02 1022.92 1022.68 1022.77 1022.77 1023.00 1023.22 1023.42
1011.06 1011.63 1012.04 1012.34 1012.92 1013.40 1013.75 1014.37 1014.92 1015.51 1016.14 1016.83 1017.57 1018.10 1018.32 1018.59 1018.81 1018.93 1019.10 1019.44 1019.74 1020.00 1020.19 1020.38 1020.64 1020.87 1021.09 1021.36 1021.71 1021.98 1022.10 1022.32 1022.45 1022.78 1023.18 1023.34 1023.57 1023.17 1023.23 1023.39 1023.38 1023.38 1023.54
Thickness
5802 5801 5795 5789 5784 5781 5778 5774 5770 5766 5761 5755 5749 5743 5738 5733 5729 5725 5721 5718 5717 5714 5712 5709 5706 5703 5700 5697 5692 5690 5689 5686 5684 5682 5683 5683 5683 5681 5679 5677 5676 5676 5678
5810 5800 5795 5790 5784 5780 5775 5770 5766 5763 5759 5752 5745 5740 5735 5731 5726 5722 5719 5716 5715 5711 5708 5705 5701 5698 5696 5694 5690 5687 5686 5685 5682 5681 5681 5681 5681 5680 5678 5676 5674 5672 5672
5809 5800 5794 5790 5785 5779 5774 5769 5764 5760 5755 5750 5744 5738 5734 5729 5724 5720 5716 5713 5710 5708 5705 5702 5699 5695 5691 5689 5688 5684 5682 5680 5679 5676 5675 5675 5674 5675 5675 5674 5672 5671 5668
5808 5800 5794 5789 5785 5779 5773 5767 5762 5757 5752 5747 5742 5738 5732 5727 5721 5717 5713 5710 5706 5704 5700 5697 5695 5693 5690 5687 5684 5682 5679 5677 5675 5672 5670 5670 5670 5671 5671 5671 5672 5670 5668
5805 5800 5794 5788 5784 5779 5772 5766 5760 5756 5752 5746 5741 5736 5730 5724 5718 5714 5709 5706 5703 5700 5697 5693 5689 5685 5683 5682 5680 5678 5678 5676 5673 5672 5668 5667 5667 5667 5668 5668 5668 5668 5666
5800 5796 5792 5787 5782 5776 5772 5767 5760 5754 5748 5743 5738 5733 5726 5720 5715 5709 5704 5702 5700 5698 5694 5688 5683 5681 5677 5676 5677 5676 5675 5672 5672 5669 5669 5667 5665 5665 5664 5665 5666 5665 5664
5797 5792 5788 5783 5779 5773 5768 5763 5758 5750 5746 5741 5735 5730 5722 5716 5710 5704 5701 5698 5695 5692 5688 5684 5680 5676 5672 5668 5670 5670 5672 5672 5669 5668 5668 5667 5664 5663 5661 5661 5663 5663 5661
5796 5790 5784 5779 5774 5771 5765 5758 5754 5750 5743 5737 5732 5728 5722 5715 5708 5704 5699 5696 5691 5686 5682 5680 5676 5672 5668 5663 5660 5663 5664 5667 5668 5666 5664 5663 5663 5658 5657 5657 5659 5661 5658
5791 5787 5781 5776 5772 5767 5762 5758 5752 5747 5740 5733 5728 5724 5718 5712 5707 5703 5698 5694 5688 5683 5679 5675 5674 5670 5664 5670 5659 5656 5653 5662 5664 5663 5660 5660 5658 5656 5655 5655 5656 5656 5657
5785 5782 5778 5773 5769 5763 5758 5754 5748 5742 5736 5729 5724 5720 5715 5708 5702 5698 5696 5691 5685 5681 5679 5676 5671 5669 5664 5657 5661 5660 5644 5652 5655 5658 5656 5658 5656 5654 5654 5652 5653 5652 5651
5778 5777 5774 5770 5766 5760 5755 5750 5745 5739 5732 5725 5720 5716 5711 5705 5700 5696 5692 5689 5685 5681 5678 5677 5674 5666 5661 5655 5649 5658 5645 5645 5649 5651 5651 5654 5653 5653 5651 5650 5648 5643 5638
5775 5773 5770 5765 5761 5756 5751 5747 5741 5734 5728 5722 5717 5712 5708 5702 5698 5695 5691 5687 5682 5680 5677 5673 5669 5665 5661 5656 5649 5645 5638 5640 5639 5642 5645 5650 5652 5650 5649 5646 5640 5644 5640
5778 5771 5766 5761 5757 5752 5747 5742 5735 5729 5724 5719 5714 5709 5705 5699 5696 5693 5690 5685 5680 5676 5673 5669 5665 5660 5657 5654 5649 5643 5638 5635 5633 5640 5639 5644 5648 5647 5645 5640 5642 5641 5640
5775 5770 5763 5759 5754 5748 5741 5737 5732 5727 5721 5715 5711 5707 5702 5697 5694 5691 5687 5682 5676 5672 5668 5665 5661 5656 5653 5651 5647 5643 5639 5634 5639 5637 5637 5640 5645 5640 5638 5636 5635 5631 5628
5774 5769 5762 5758 5750 5743 5737 5733 5729 5724 5719 5713 5709 5705 5700 5695 5690 5686 5682 5676 5673 5669 5665 5662 5659 5656 5650 5645 5641 5639 5637 5634 5632 5626 5629 5633 5636 5635 5634 5631 5627 5623 5626
5774 5767 5759 5754 5748 5741 5735 5731 5726 5721 5716 5710 5707 5703 5698 5692 5686 5682 5677 5673 5670 5665 5661 5657 5652 5647 5643 5639 5634 5633 5630 5628 5626 5623 5625 5625 5621 5623 5628 5627 5620 5617 5613
5773 5765 5756 5750 5745 5740 5734 5728 5722 5718 5713 5707 5703 5699 5694 5688 5682 5677 5673 5668 5666 5663 5657 5653 5646 5642 5636 5629 5627 5624 5622 5620 5618 5615 5618 5616 5611 5610 5609 5609 5609 5611 5613
5769 5765 5756 5749 5741 5735 5730 5724 5717 5713 5708 5703 5698 5694 5689 5684 5678 5673 5668 5664 5661 5658 5651 5646 5640 5632 5626 5623 5618 5613 5613 5612 5609 5606 5607 5604 5605 5601 5598 5596 5593 5590 5594
5769 5763 5753 5746 5737 5731 5724 5716 5711 5707 5703 5697 5694 5689 5684 5679 5674 5670 5664 5659 5655 5650 5643 5637 5630 5625 5616 5608 5605 5604 5599 5599 5598 5596 5596 5596 5594 5594 5590 5585 5584 5580 5580
5762 5756 5748 5740 5732 5724 5717 5710 5704 5700 5696 5691 5686 5682 5678 5673 5669 5665 5658 5651 5646 5642 5636 5629 5620 5612 5607 5602 5597 5591 5589 5586 5586 5588 5588 5586 5585 5585 5582 5579 5576 5574 5569
5751 5746 5741 5734 5726 5720 5712 5705 5698 5694 5689 5684 5679 5674 5670 5666 5662 5657 5651 5643 5640 5635 5629 5621 5611 5604 5595 5592 5588 5585 5582 5581 5578 5575 5575 5575 5574 5572 5570 5570 5567 5565 5562
5743 5737 5731 5725 5720 5714 5709 5701 5694 5688 5681 5675 5671 5665 5662 5660 5656 5652 5647 5640 5637 5630 5623 5616 5611 5601 5594 5587 5584 5578 5576 5570 5567 5566 5565 5566 5564 5561 5559 5558 5558 5555 5551
5734 5730 5725 5718 5713 5706 5700 5694 5686 5679 5671 5665 5662 5657 5655 5653 5649 5646 5642 5637 5631 5625 5617 5611 5606 5602 5595 5586 5582 5578 5571 5569 5563 5559 5558 5556 5554 5551 5549 5548 5545 5543 5538
5727 5722 5716 5712 5706 5700 5696 5691 5688 5681 5672 5664 5659 5655 5650 5647 5644 5641 5635 5629 5624 5619 5612 5606 5601 5595 5589 5584 5577 5575 5571 5566 5565 5559 5546 5545 5543 5541 5539 5536 5534 5532 5528
5723 5716 5710 5706 5701 5696 5692 5689 5684 5676 5669 5662 5656 5650 5647 5641 5636 5630 5625 5620 5616 5609 5606 5599 5592 5586 5580 5574 5568 5561 5556 5554 5550 5550 5551 5538 5535 5535 5531 5528 5522 5518 5514
5715 5710 5705 5701 5696 5692 5689 5685 5679 5672 5665 5659 5650 5645 5640 5635 5630 5624 5619 5612 5606 5600 5594 5589 5583 5575 5569 5563 5556 5550 5546 5541 5536 5530 5524 5518 5512 5513 5509 5507 5504 5502 5498